Miscellaneous Local Product
Issued by NWS North Platte, NE

Home | Current Version | Previous Version | Text Only | Print | Product List | Glossary On
Versions: 1 2 3 4 5 6 7 8 9 10 11 12 13 14 15 16 17 18 19 20 21 22 23 24 25 26 27 28 29 30 31 32 33 34 35 36 37 38 39 40 41 42 43 44 45 46 47 48 49 50
000
AXUS43 KLBF 290710
MISLBF


WESTERN AND NORTH CENTRAL NEBRASKA HOURLY WEATHER ROUNDUP
NATIONAL WEATHER SERVICE NORTH PLATTE NE
200 AM CDT MON SEP 29 2014

***STATIONS NOT REPORTING VARIABLES SUCH AS SKY/WEATHER OR
PRESSURE ARE PROVIDED BY THE NEBRASKA DEPARTMENT OF
ROADS...RAWS...AND APRS NETWORKS...AND ARE NOT UNDER
NATIONAL WEATHER SERVICE QUALITY CONTROL***

...OBSERVATIONS IN AND NEAR THE EASTERN PANHANDLE OF NEBRASKA...

CITY           SKY/WX    TMP DP  RH WIND       PRES   REMARKS
PINE RIDGE     CLOUDY    53  52  96 E13       30.12S FOG
CHADRON        RAIN      52  51  97 NE15      30.10F FOG
ALLIANCE       CLOUDY    55  54  96 E15       30.06F
SIDNEY         CLOUDY    63  55  75 SE9       30.04F
WHITECLAY        N/A     51  50  95 NE8         N/A
RUSHVILLE        N/A     52  51  97 NE8         N/A
CRESCENT LAKE    N/A     57  53  86 NE10        N/A
LISCO            N/A     62  56  80 N18         N/A
BIG SPRINGS      N/A     66  55  68 S9          N/A
$$

...OBSERVATIONS IN NORTH CENTRAL NEBRASKA...

CITY           SKY/WX    TMP DP  RH WIND       PRES   REMARKS
VALENTINE      CLOUDY    55  52  89 NE10      30.11S
THEDFORD       CLEAR     57  55  92 N5        30.11R
AINSWORTH      CLEAR     54  52  94 W5        30.10S
O`NEILL        PTCLDY    66  59  79 S5        30.06S
ORD            CLEAR     59  56  89 CALM      30.06S
BROKEN BOW     CLEAR     59  53  80 CALM      30.07S
SPRINGVIEW       N/A     57  53  87 CALM        N/A
ROSE             N/A     65  62  90 CALM        N/A
NEWPORT          N/A     57  57  97 W3          N/A
SARGENT          N/A     58  55  91 CALM        N/A
COMSTOCK         N/A     66  61  82 S7          N/A
CHAMBERS         N/A     64  58  81 S8          N/A
EWING            N/A     64  59  85 S3          N/A
$$

...OBSERVATIONS IN SOUTHWEST NEBRASKA AND FAR NORTHEAST COLORADO...

CITY           SKY/WX    TMP DP  RH WIND       PRES   REMARKS
WRAY           FAIR      65  52  64 SE17G23   30.03S
IMPERIAL       CLEAR     62  53  72 SE12      30.04S
OGALLALA       CLEAR     65  55  71 SE12      30.03S
NORTH PLATTE   CLOUDY    65  54  67 SE10      30.06S
MCCOOK         PTCLDY    67  54  63 SE16      30.05S
LEXINGTON      PTCLDY    59  55  85 SE6       30.07S
PAXTON           N/A     65  56  71 SE12        N/A
SUTHERLAND       N/A     60  54  79 SE8         N/A
BRADY            N/A     64  54  70 CALM        N/A
GOTHENBURG       N/A     69  51  53 SE6         N/A
CALLAWAY         N/A     58  54  88 S8          N/A
$$

...SOME WEATHER OBSERVATIONS FROM AROUND THE REGION...

CITY           SKY/WX    TMP DP  RH WIND       PRES   REMARKS
DENVER         MOCLDY    53  49  86 NW12      30.06R
LARAMIE        CLOUDY    47  45  93 W14G21    30.14R
CHEYENNE       LGT RAIN  47  47 100 N12       30.10F VSB 1/4
SCOTTSBLUFF    CLOUDY    55 N/A N/A E8        30.05S
RAPID CITY     CLOUDY    51  49  92 N12       30.16S FOG
PIERRE         LGT RAIN  52  49  89 NE21      30.12F
WINNER         RAIN      56  54  93 NE12      30.11S FOG
SIOUX FALLS    RAIN      66  64  93 SE10      30.05F
OMAHA          CLEAR     65  57  75 SE6       30.06S
GRAND ISLAND   CLEAR     61  56  83 S7        30.08S
KANSAS CITY    CLEAR     68  57  68 CALM      30.07F
WICHITA        CLEAR     66  59  78 S3        30.07R
HAYS           CLEAR     63  52  67 SE8       30.07S
LIBERAL        CLEAR     61  52  72 SE8       30.09S
GOODLAND       CLEAR     60  52  74 SE14      30.05F
$$



USA.gov is the U.S. government's official web portal to all federal, state and local government web resources and services.